Location: Earls Croome
(52.0667°N, 2.2000°W)
Time: 12:46:00
(UTC+00:00)

SL-16 R/B - Pass Details

Date: 17 November 2019
Orbit: 842 x 846 km, 71.0° (Epoch: 08 December)

Event Time Altitude Azimuth Distance (km) Brightness Sun altitude
Exits shadow 06:34:19 10° 304° (WNW) 2,483 4.0 -8.8°
Reaches altitude 10° 06:34:20 10° 303° (WNW) 2,478 4.0 -8.8°
Maximum altitude 06:38:12 19° 260° (W) 1,905 3.6 -8.3°
Drops below altitude 10° 06:42:04 10° 217° (SW) 2,465 4.5 -7.7°
Sets 06:45:09 0° 200° (SSW) 3,394 5.4 -7.3°
